EW2235 Weather Reports


time (UTC)temp
F
wind
direction
speed
knots
gust
knots
rain 1hr
in
rain 24hr
in
rain mn
in
humidity
%
barometer
mb
20260503195829 84 324 0.9 4.3 0.00 0.00 0.00 33 1010.9
20260503195335 85 160 0.0 3.5 0.00 0.00 0.00 35 1010.9
20260503194818 84 45 0.0 1.7 0.00 0.00 0.00 37 1011.0
20260503194318 82 345 0.0 3.5 0.00 0.00 0.00 39 1011.0
20260503193828 82 325 0.9 4.3 0.00 0.00 0.00 39 1011.0
20260503193348 81 305 0.9 5.2 0.00 0.00 0.00 41 1011.1
20260503192837 81 349 1.7 5.2 0.00 0.00 0.00 42 1011.1
20260503192336 80 338 0.0 0.9 0.00 0.00 0.00 42 1011.2
20260503191845 80 314 0.0 4.3 0.00 0.00 0.00 42 1011.3
20260503191351 81 347 0.9 4.3 0.00 0.00 0.00 39 1011.3
20260503190833 81 134 0.0 0.9 0.00 0.00 0.00 40 1011.3
20260503190339 80 50 0.0 0.9 0.00 0.00 0.00 42 1011.5
20260503185845 79 20 0.0 3.5 0.00 0.00 0.00 42 1011.5
20260503185351 80 334 1.7 3.5 0.00 0.00 0.00 42 1011.6
20260503184901 80 122 0.0 3.5 0.00 0.00 0.00 43 1011.7
20260503184426 79 328 0.0 0.9 0.00 0.00 0.00 42 1011.7
20260503183841 78 120 0.0 0.9 0.00 0.00 0.00 44 1011.8
20260503183343 78 11 0.0 1.7 0.00 0.00 0.00 46 1011.8
20260503182834 78 337 0.0 1.7 0.00 0.00 0.00 44 1011.8
20260503182358 78 2 0.0 0.0 0.00 0.00 0.00 45 1011.9
20260503181840 78 359 0.0 0.9 0.00 0.00 0.00 46 1011.9
20260503181346 76 27 0.0 7.0 0.00 0.00 0.00 49 1011.9
20260503180815 75 11 1.7 7.0 0.00 0.00 0.00 48 1011.9
20260503180316 75 349 0.0 0.9 0.00 0.00 0.00 48 1012.0
20260503175826 75 122 0.0 1.7 0.00 0.00 0.00 50 1012.0
20260503175325 75 46 0.9 1.7 0.00 0.00 0.00 50 1012.1
20260503174829 74 79 0.0 0.9 0.00 0.00 0.00 51 1012.1
20260503174335 74 44 0.0 2.6 0.00 0.00 0.00 49 1012.1
20260503173818 75 353 0.0 0.0 0.00 0.00 0.00 50 1012.1
20260503173318 74 130 0.0 2.6 0.00 0.00 0.00 52 1012.1
20260503172829 73 141 0.0 2.6 0.00 0.00 0.00 53 1012.1
20260503172328 73 42 0.0 0.9 0.00 0.00 0.00 51 1012.3
20260503171831 73 348 0.0 3.5 0.00 0.00 0.00 54 1012.2
20260503171311 72 330 0.0 3.5 0.00 0.00 0.00 54 1012.2
20260503170818 71 20 0.0 3.5 0.00 0.00 0.00 57 1012.2
20260503170318 70 318 0.9 3.5 0.00 0.00 0.00 57 1012.3
20260503150821 63 75 0.0 0.0 0.00 0.00 0.00 75 1012.6
20260503150316 63 127 0.0 0.0 0.00 0.00 0.00 77 1012.6
20260503131329 59 356 0.0 3.5 0.00 0.00 0.00 80 1012.2
20260503130819 58 20 0.9 3.5 0.00 0.00 0.00 80 1012.1
20260503130318 58 48 0.0 0.0 0.00 0.00 0.00 80 1012.0
20260503110314 60 18 0.0 2.6 0.00 0.01 0.00 80 1012.4
20260503090319 59 282 0.0 0.0 0.00 0.02 0.00 89 1012.8
20260503081318 60 335 0.0 0.0 0.00 0.02 0.00 86 1012.7
20260503080828 60 335 0.0 0.0 0.00 0.02 0.00 85 1012.7
20260503080328 60 335 0.0 0.0 0.00 0.02 0.00 85 1012.8
20260503072820 62 335 0.0 0.0 0.00 0.02 0.00 81 1012.9
20260503072320 62 335 0.0 0.0 0.00 0.02 0.00 81 1012.9
20260503071830 62 335 0.0 0.0 0.00 0.02 0.00 81 1012.9
20260503071330 62 335 0.0 0.0 0.00 0.02 0.00 82 1013.0
20260503070813 61 323 0.0 0.0 0.00 0.02 0.00 82 1013.0
20260503070320 61 203 0.0 0.0 0.00 0.02 0.02 82 1013.0
20260503060312 61 136 0.0 0.0 0.00 0.02 0.02 82 1013.1
20260503054833 61 193 0.0 1.7 0.00 0.02 0.02 82 1013.0
20260503054332 61 207 0.0 1.7 0.00 0.02 0.02 82 1013.0
20260503053841 61 198 0.0 0.0 0.00 0.02 0.02 82 1012.9
20260503053347 61 120 0.0 0.0 0.00 0.02 0.02 82 1012.8
20260503052857 61 119 0.0 0.0 0.00 0.02 0.02 82 1012.8
20260503052343 61 122 0.0 0.0 0.00 0.02 0.02 82 1012.8
20260503051848 61 134 0.0 0.0 0.00 0.02 0.02 82 1012.8
20260503051354 61 127 0.0 0.0 0.00 0.02 0.02 82 1012.9
20260503050816 61 292 0.0 0.0 0.00 0.02 0.02 82 1012.8
20260503050315 61 13 0.0 0.0 0.00 0.02 0.02 82 1012.9
20260503045818 62 75 0.0 0.0 0.00 0.02 0.02 81 1013.0
20260503045325 62 75 0.0 1.7 0.00 0.02 0.02 80 1013.1
20260503044812 63 106 0.0 2.6 0.00 0.02 0.02 79 1013.4
20260503044312 63 106 0.9 2.6 0.00 0.02 0.02 78 1013.2
20260503043822 63 323 0.0 3.5 0.00 0.02 0.02 78 1012.9
20260503043322 63 310 0.0 3.5 0.00 0.02 0.02 78 1012.8
20260503042832 63 305 0.0 1.7 0.00 0.02 0.02 78 1012.8
20260503042312 63 337 0.0 1.7 0.00 0.02 0.02 78 1012.9
20260503041815 63 311 0.0 0.0 0.00 0.02 0.02 79 1012.8
20260503041315 63 312 0.0 0.0 0.00 0.02 0.02 79 1012.8
20260503040825 62 317 0.0 0.0 0.00 0.02 0.02 80 1012.9
20260503040325 62 335 0.0 0.0 0.00 0.02 0.02 81 1013.0
20260503035835 62 335 0.0 0.0 0.00 0.02 0.02 81 1013.0
20260503035315 62 335 0.0 0.0 0.00 0.02 0.02 80 1013.0
20260503034818 62 335 0.0 0.0 0.00 0.02 0.02 80 1013.0
20260503034325 62 335 0.0 0.0 0.00 0.02 0.02 80 1012.9
20260503033827 63 335 0.0 0.0 0.00 0.02 0.02 79 1012.9
20260503033327 63 335 0.0 0.0 0.00 0.02 0.02 79 1012.8
20260503032837 63 335 0.0 0.0 0.00 0.02 0.02 78 1012.7
20260503032358 63 335 0.0 0.0 0.00 0.02 0.02 78 1012.7
20260503031822 63 335 0.0 0.0 0.00 0.02 0.02 78 1012.6
20260503031329 63 335 0.0 0.0 0.00 0.02 0.02 78 1012.5
20260503030812 63 354 0.0 0.0 0.00 0.02 0.02 77 1012.4
20260503030326 63 319 0.0 0.0 0.00 0.02 0.02 78 1012.6
20260503025829 63 164 0.0 0.0 0.00 0.02 0.02 78 1012.5
20260503025316 63 163 0.0 0.0 0.00 0.02 0.02 78 1012.5
20260503024826 63 162 0.0 4.3 0.00 0.02 0.02 77 1012.7
20260503024323 63 171 0.0 4.3 0.00 0.02 0.02 77 1012.7
20260503023825 63 203 0.0 6.1 0.00 0.02 0.02 78 1012.6
20260503023332 63 167 0.9 6.1 0.00 0.02 0.02 78 1012.8
20260503022815 63 182 0.0 4.3 0.00 0.02 0.02 77 1012.8
20260503022315 64 134 0.0 13.0 0.00 0.02 0.02 77 1012.8
20260503021826 64 155 0.0 13.0 0.00 0.02 0.02 77 1012.8
20260503021325 64 183 0.9 10.4 0.00 0.02 0.02 76 1012.9
20260503020836 65 162 1.7 14.8 0.00 0.02 0.02 75 1012.9
20260503020315 66 162 2.6 14.8 0.00 0.02 0.02 72 1013.0
20260503015818 67 157 2.6 7.8 0.00 0.02 0.02 70 1012.7
20260503015318 67 165 0.0 0.9 0.00 0.02 0.02 70 1012.3
20260503014828 67 170 0.0 0.9 0.00 0.02 0.02 70 1012.2
20260503014328 68 172 0.0 2.6 0.00 0.02 0.02 70 1012.1
20260503013838 68 201 0.0 2.6 0.00 0.02 0.02 69 1012.1
20260503013318 68 207 0.0 1.7 0.00 0.02 0.02 69 1012.0
20260503012321 69 198 0.0 0.9 0.00 0.02 0.02 67 1012.0
20260503011830 69 142 0.0 1.7 0.00 0.02 0.02 68 1012.0
20260503011330 69 195 0.0 0.0 0.00 0.02 0.02 67 1012.0
20260503010813 69 312 0.0 0.0 0.00 0.02 0.02 66 1011.9
20260503010320 70 196 0.0 0.0 0.00 0.02 0.02 65 1012.0
20260503005823 70 196 0.0 0.0 0.00 0.02 0.02 66 1011.9
20260503005323 70 195 0.0 3.5 0.00 0.02 0.02 66 1011.9
20260503004316 70 295 0.0 3.5 0.00 0.02 0.02 65 1012.0
20260503003815 70 295 0.0 0.0 0.00 0.02 0.02 64 1012.0
20260503003324 70 288 0.0 0.0 0.00 0.02 0.02 64 1011.9
20260503002826 71 291 0.0 0.0 0.00 0.02 0.02 63 1011.9
20260503002326 71 276 0.0 0.0 0.00 0.02 0.02 62 1011.9
20260503001836 71 286 0.0 0.0 0.00 0.02 0.02 62 1011.8
20260503001316 71 204 0.0 0.0 0.00 0.02 0.02 63 1011.9
20260503000819 70 141 0.0 0.0 0.00 0.02 0.02 62 1011.9
20260503000326 70 266 0.0 0.0 0.00 0.02 0.02 63 1012.0
20260502235826 71 122 0.0 0.0 0.00 0.02 0.02 61 1012.0
20260502235326 71 207 0.0 0.0 0.00 0.02 0.02 62 1012.0
20260502234816 70 304 0.0 0.0 0.00 0.02 0.02 61 1012.0
20260502234316 70 304 0.0 0.0 0.00 0.02 0.02 62 1012.0
20260502233819 69 245 0.0 0.9 0.00 0.02 0.02 62 1012.1
20260502233325 70 3 0.0 0.9 0.00 0.02 0.02 61 1012.2
20260502232828 70 333 0.0 2.6 0.00 0.02 0.02 62 1012.3
20260502232336 70 344 0.9 2.6 0.00 0.02 0.02 63 1012.4
20260502231818 69 352 0.0 0.9 0.00 0.02 0.02 64 1012.4
20260502231318 69 338 0.0 0.9 0.00 0.02 0.02 64 1012.4
20260502230821 69 39 0.0 0.9 0.00 0.02 0.02 63 1012.5
20260502230328 68 112 0.0 1.7 0.00 0.02 0.02 66 1012.5
20260502225831 68 29 0.0 1.7 0.00 0.02 0.02 66 1012.6
20260502225311 68 36 0.0 3.5 0.00 0.02 0.02 65 1012.7
20260502224821 68 120 0.0 3.5 0.00 0.02 0.02 63 1012.8
20260502224320 69 129 0.0 1.7 0.00 0.02 0.02 63 1012.9
20260502223829 69 300 0.0 0.0 0.00 0.02 0.02 64 1012.9
20260502223311 68 302 0.0 2.6 0.00 0.02 0.02 65 1012.9
20260502222813 67 334 0.0 2.6 0.00 0.02 0.02 65 1013.0
20260502222319 68 42 0.0 3.5 0.00 0.02 0.02 64 1013.1
20260502221828 68 335 1.7 3.5 0.00 0.02 0.02 62 1013.3
20260502221334 70 49 0.0 0.0 0.00 0.02 0.02 63 1013.3
20260502220815 68 161 0.0 0.0 0.00 0.02 0.02 64 1013.3
20260502220314 67 203 0.0 4.3 0.00 0.02 0.02 66 1013.3
20260502215824 66 182 0.9 4.3 0.00 0.02 0.02 66 1013.4
20260502215324 67 159 1.7 3.5 0.00 0.02 0.02 66 1013.5
20260502214834 67 167 0.0 0.0 0.00 0.02 0.02 67 1013.7
20260502214314 66 6 0.0 4.3 0.00 0.02 0.02 67 1013.7
20260502213817 67 4 0.9 4.3 0.00 0.02 0.02 66 1013.7
20260502213325 67 221 0.0 2.6 0.00 0.02 0.02 67 1013.8
20260502212827 66 207 0.9 2.6 0.00 0.02 0.02 66 1013.9
20260502212328 67 103 0.0 0.9 0.00 0.02 0.02 67 1013.9
20260502211837 67 75 0.0 0.0 0.00 0.02 0.02 67 1014.0
20260502211317 65 285 0.0 0.0 0.00 0.02 0.02 70 1014.1
20260502210820 65 240 0.0 4.3 0.00 0.02 0.02 71 1014.2
20260502210327 63 182 0.9 6.1 0.00 0.02 0.02 73 1014.2
20260502205830 62 197 1.7 6.1 0.00 0.02 0.02 73 1014.2
20260502205330 62 32 0.0 2.6 0.00 0.02 0.02 74 1014.3
20260502204813 62 346 0.0 4.3 0.00 0.02 0.02 74 1014.4
20260502204320 61 335 1.7 7.0 0.00 0.02 0.02 75 1014.5
20260502203337 61 329 0.9 4.3 0.00 0.02 0.02 74 1014.7
20260502202820 62 309 0.0 3.5 0.00 0.02 0.02 74 1014.8
20260502202320 63 345 0.9 3.5 0.00 0.02 0.02 71 1014.8
20260502201822 62 162 0.0 1.7 0.00 0.02 0.02 74 1014.8
20260502201329 61 321 0.0 0.9 0.00 0.02 0.02 75 1014.9
20260502200812 59 292 0.0 2.6 0.00 0.02 0.02 78 1014.9
20260502200312 59 333 0.0 2.6 0.00 0.02 0.02 78 1015.0